Regional Weather Roundup
Issued by NWS

Home | Current Version | Previous Version | Text Only | Print | Product List | Glossary On
Versions: 1 2 3 4 5 6 7 8 9 10 11 12 13 14 15 16 17 18 19 20 21 22 23 24 25 26 27 28 29 30 31 32 33 34 35 36 37 38 39 40 41 42 43 44 45 46 47 48 49 50
000
ASUS45 KBOU 042107
RWRCO

WEATHER ROUNDUP FOR COLORADO
NATIONAL WEATHER SERVICE DENVER/BOULDER CO
300 PM MDT MON MAY 04 2015

NOTE: "FAIR" INDICATES FEW OR NO CLOUDS BELOW 12000 FEET WITH NO
SIGNIFICANT WEATHER AND/OR OBSTRUCTIONS TO VISIBILITY.

COZ001>005-013-030-031-042200-
...NORTHWEST COLORADO...

CITY           SKY/WX    TMP DP  RH WIND       PRES   REMARKS
CRAIG          CLOUDY    60  39  45 S16       30.01F
HAYDEN         NOT AVBL
MEEKER         CLOUDY    56  42  59 NW8       30.04S
MOUNT WERNER   NOT AVBL
STEAMBOAT SPGS CLOUDY    59  35  39 SW5       30.04S
WALDEN         CLOUDY    50  43  76 NE8       30.12F
$$

COZ006>008-011-042200-
...WEST CENTRAL VALLEYS...

CITY           SKY/WX    TMP DP  RH WIND       PRES   REMARKS
GRAND JUNCTION PTSUNNY   70  38  31 W3        29.91F
MONTROSE       CLOUDY    66  37  34 SW12      30.00S
EAGLE          PTSUNNY   63  39  42 W5        30.03F
RIFLE          PTSUNNY   67  40  37 VRB7      29.98F
DELTA          CLOUDY    73  39  29 W13       29.95F
NUCLA          LGT RAIN  54  46  76 N7        30.05F
$$

COZ017>023-064>068-042200-
...SOUTHWEST COLORADO...

CITY           SKY/WX    TMP DP  RH WIND       PRES   REMARKS
DURANGO        CLOUDY    63  30  28 S14       29.99F
CORTEZ         MOSUNNY   69  37  30 SW17      29.96F
PAGOSA SPRINGS CLOUDY    61  29  29 SE3       30.05F THUNDER
TELLURIDE      CLOUDY    51  36  56 CALM      30.14F
WOLF CREEK PAS NOT AVBL
$$

COZ009-010-012-014-032>034-037-058>063-042200-
...CENTRAL COLORADO...

CITY           SKY/WX    TMP DP  RH WIND       PRES   REMARKS
ASPEN          CLOUDY    58  36  43 N8        30.05F
BUENA VISTA    NOT AVBL
COPPER MTN     NOT AVBL
BERTHOUD PASS  HAZE      32  23  69 SE20G30   30.31F THUNDER VSB<1/4
COTTONWOOD PAS CLOUDY    46  34  61 NW6       30.19F
GUNNISON       CLOUDY    55  34  44 SE16      30.10S
KREMMLING      PTSUNNY   59  32  36 NW10      30.06S
LEADVILLE      PTSUNNY   46  29  51 S26G33    30.17R
MONARCH PASS   CLOUDY    41  27  56 E7        30.38F
SALIDA         CLOUDY    61  41  46 N5        30.15F
SUNLIGHT       CLOUDY    45  32  61 CALM      30.24F
WILKERSON PASS CLOUDY    36  34  93 MISG      30.30F
$$

COZ069>075-042200-
...SAN LUIS VALLEY/SANGRE DE CRISTO MOUNTAINS...

CITY           SKY/WX    TMP DP  RH WIND       PRES   REMARKS
ALAMOSA        CLOUDY    57  30  35 W15       30.05F
LA VETA PASS   TSTM      37  36  93 MISG      30.23F VSB<1/4
SAGUACHE       PTSUNNY   61  32  33 S8G18     30.07F
$$

COZ035-036-038>040-042200-
...NORTHERN COLORADO FRONT RANGE...

CITY           SKY/WX    TMP DP  RH WIND       PRES   REMARKS
DENVER INTL AP PTSUNNY   58  49  72 NE13      30.07F
DMNS CITY PARK   N/A     59  47  65 NE5G13    30.06F
AURORA         PTSUNNY   58  49  70 E10       30.08F
FRONT RANGE AP PTSUNNY   59  50  72 E14       30.09F
ERIE MUNI ARPT CLOUDY    58  49  72 E6        30.08F
BOULDER MUN AP CLOUDY    54  48  82 CALM      30.08F
CENTENNIAL     PTSUNNY   58  46  64 E7        30.08F
BROOMFIELD     CLOUDY    57  48  72 VRB5      30.09
FORT COLLINS   PTSUNNY   57  46  67 E8        30.10F
LONGMONT       CLOUDY    61  49  66 CALM      30.10F
$$

COZ041-046-047-076>085-087-088-042200-
...PIKES PEAK/PALMER DIVIDE AND SOUTHERN FOOTHILLS...

CITY           SKY/WX    TMP DP  RH WIND       PRES   REMARKS
COLO. SPRINGS  PTSUNNY   62  43  49 SE12      30.08F
A. F. ACADEMY  LGT RAIN  55  46  71 SW3       30.08F
ELLICOTT       PTSUNNY  N/A N/A N/A SE16      30.07F
FALCON         PTSUNNY   59  42  54 SE9       30.12F
FORT CARSON    PTSUNNY   61  45  56 SE10      30.06F
LIMON          PTSUNNY   61  47  59 E20G25    30.07F
MONUMENT HILL  CLOUDY    50  45  81 N9        30.11F
TRINIDAD       LGT RAIN  55  49  80 NE10      30.05S
$$

COZ042>045-048>051-090-091-042200-
...NORTHEAST COLORADO...

CITY           SKY/WX    TMP DP  RH WIND       PRES   REMARKS
GREELEY ARPT   PTSUNNY   59  45  58 SE8       30.10F
AKRON          CLOUDY    57  45  64 E13       30.11F
BURLINGTON     CLOUDY    63  49  60 E10       30.08F
WRAY           CLOUDY    56  47  72 NE12      30.12S
STERLING       PTSUNNY   59  43  55 SE10      30.09F
HOLYOKE        NOT AVBL
FORT MORGAN    PTSUNNY   63 -14   4 SE12G17   30.10F
$$

COZ086-089-092>099-042200-
...SOUTHEAST COLORADO...

CITY           SKY/WX    TMP DP  RH WIND       PRES   REMARKS
PUEBLO         CLOUDY    66  47  50 E17       30.01F
LA JUNTA       PTSUNNY   71  49  45 E16       30.00F
LAMAR          PTSUNNY   72  52  49 E14G21    29.97F
SPRINGFIELD      N/A     69  49  48 SE15G22   29.98F
$$


USA.gov is the U.S. government's official web portal to all federal, state and local government web resources and services.